SB KEPS @ AMSAT $ORB07088.O Orbital Elements 07088.OSCAR
HR AMSAT ORBITAL ELEMENTS FOR OSCAR SATELLITES FROM WA5QGD FORT WORTH,TX March 29, 2007 Send SUBSCRIBE KEPS/UNSUBSCRIBE KEPS to majordomo@amsat.org only BID: ORB07088.O TO ALL RADIO AMATEURS BT
Satellite: AO-07 Catalog number: 07530 Epoch time: 07088.17545432 Element set: 839 Inclination: 101.5253 deg RA of node: 128.5114 deg Eccentricity: 0.0012136 Arg of perigee: 052.3893 deg Mean anomaly: 307.8279 deg Mean motion: 12.53572676 rev/day Decay rate: -2.8e-07 rev/day^2 Epoch rev: 48109 Checksum: 302
Satellite: AO-10 Catalog number: 14129 Epoch time: 07086.45789726 Element set: 0369 Inclination: 026.7713 deg RA of node: 284.9388 deg Eccentricity: 0.6055188 Arg of perigee: 009.0955 deg Mean anomaly: 358.2787 deg Mean motion: 02.05869736 rev/day Decay rate: 4.0e-07 rev/day^2 Epoch rev: 17888 Checksum: 367
Satellite: UO-11 Catalog number: 14781 Epoch time: 07087.57679784 Element set: 0335 Inclination: 098.1966 deg RA of node: 108.6998 deg Eccentricity: 0.0010175 Arg of perigee: 072.6094 deg Mean anomaly: 287.6207 deg Mean motion: 14.79536126 rev/day Decay rate: 3.82e-06 rev/day^2 Epoch rev: 23781 Checksum: 351
Satellite: RS-10/11 Catalog number: 18129 Epoch time: 07088.60580137 Element set: 258 Inclination: 082.9225 deg RA of node: 117.0580 deg Eccentricity: 0.0012939 Arg of perigee: 026.9863 deg Mean anomaly: 333.1960 deg Mean motion: 13.72785718 rev/day Decay rate: 2.8e-07 rev/day^2 Epoch rev: 99031 Checksum: 317
Satellite: RS-15 Catalog number: 23439 Epoch time: 07087.62797687 Element set: 0071 Inclination: 064.8168 deg RA of node: 137.2033 deg Eccentricity: 0.0161801 Arg of perigee: 205.0888 deg Mean anomaly: 154.2108 deg Mean motion: 11.27551866 rev/day Decay rate: -3.9e-07 rev/day^2 Epoch rev: 50461 Checksum: 312
Satellite: FO-29 Catalog number: 24278 Epoch time: 07087.96397465 Element set: 0484 Inclination: 098.5411 deg RA of node: 058.4118 deg Eccentricity: 0.0349947 Arg of perigee: 291.3025 deg Mean anomaly: 065.1084 deg Mean motion: 13.52929080 rev/day Decay rate: 6.0e-08 rev/day^2 Epoch rev: 52405 Checksum: 331
Satellite: SO-33 Catalog number: 25509 Epoch time: 07088.64824126 Element set: 895 Inclination: 031.4300 deg RA of node: 315.4464 deg Eccentricity: 0.0354548 Arg of perigee: 092.0888 deg Mean anomaly: 272.0370 deg Mean motion: 14.28156006 rev/day Decay rate: 2.54e-06 rev/day^2 Epoch rev: 43987 Checksum: 313
Satellite: AO-40 Catalog number: 26609 Epoch time: 07087.92289138 Element set: 857 Inclination: 004.9539 deg RA of node: 161.2286 deg Eccentricity: 0.7988970 Arg of perigee: 294.4721 deg Mean anomaly: 005.5412 deg Mean motion: 01.25586528 rev/day Decay rate: 6.5e-07 rev/day^2 Epoch rev: 2943 Checksum: 343
Satellite: VO-52 Catalog number: 28650 Epoch time: 07087.38783343 Element set: 0590 Inclination: 097.8365 deg RA of node: 159.8950 deg Eccentricity: 0.0027875 Arg of perigee: 154.7241 deg Mean anomaly: 205.5298 deg Mean motion: 14.81287063 rev/day Decay rate: 5.02e-06 rev/day^2 Epoch rev: 10245 Checksum: 331
Satellite: PO-63 Catalog number: 29712 Epoch time: 07088.78689400 Element set: 231 Inclination: 097.9291 deg RA of node: 149.0269 deg Eccentricity: 0.0014856 Arg of perigee: 031.9319 deg Mean anomaly: 328.2796 deg Mean motion: 14.79609127 rev/day Decay rate: 7.78e-06 rev/day^2 Epoch rev: 1159 Checksum: 350
/EX SB KEPS @ AMSAT $ORB07088.D Orbital Elements 07088.MICROS
HR AMSAT ORBITAL ELEMENTS FOR THE MICROSATS FROM WA5QGD FORT WORTH,TX March 29, 2007 Send SUBSCRIBE KEPS/UNSUBSCRIBE KEPS to majordomo@amsat.org only BID: ORB07088.D TO ALL RADIO AMATEURS BT
Satellite: AO-16 Catalog number: 20439 Epoch time: 07087.58360932 Element set: 998 Inclination: 098.1951 deg RA of node: 086.5906 deg Eccentricity: 0.0011956 Arg of perigee: 068.2293 deg Mean anomaly: 292.0164 deg Mean motion: 14.31753937 rev/day Decay rate: -1.3e-07 rev/day^2 Epoch rev: 89701 Checksum: 336
Satellite: LO-19 Catalog number: 20442 Epoch time: 07088.54394125 Element set: 925 Inclination: 098.1825 deg RA of node: 096.9444 deg Eccentricity: 0.0012948 Arg of perigee: 064.6193 deg Mean anomaly: 295.6332 deg Mean motion: 14.31995367 rev/day Decay rate: 1.0e-07 rev/day^2 Epoch rev: 89729 Checksum: 341
Satellite: AO-27 Catalog number: 22825 Epoch time: 07087.47762738 Element set: 0649 Inclination: 098.3230 deg RA of node: 060.9109 deg Eccentricity: 0.0009043 Arg of perigee: 136.0527 deg Mean anomaly: 224.1370 deg Mean motion: 14.29202944 rev/day Decay rate: -4.2e-07 rev/day^2 Epoch rev: 70396 Checksum: 302
Satellite: IO-26 Catalog number: 22826 Epoch time: 07088.44879072 Element set: 345 Inclination: 098.3160 deg RA of node: 062.9433 deg Eccentricity: 0.0009326 Arg of perigee: 129.8919 deg Mean anomaly: 230.3091 deg Mean motion: 14.29449130 rev/day Decay rate: 2.3e-07 rev/day^2 Epoch rev: 70418 Checksum: 308
Satellite: PO-28 Catalog number: 22829 Epoch time: 07087.53424824 Element set: 623 Inclination: 098.3055 deg RA of node: 063.2476 deg Eccentricity: 0.0010602 Arg of perigee: 108.7699 deg Mean anomaly: 251.4655 deg Mean motion: 14.30148191 rev/day Decay rate: 6.2e-07 rev/day^2 Epoch rev: 70428 Checksum: 305
Satellite: GO-32 Catalog number: 25397 Epoch time: 07088.64182879 Element set: 265 Inclination: 098.4237 deg RA of node: 139.3022 deg Eccentricity: 0.0002053 Arg of perigee: 096.0839 deg Mean anomaly: 264.0560 deg Mean motion: 14.23121759 rev/day Decay rate: -1.45e-06 rev/day^2 Epoch rev: 45284 Checksum: 312
Satellite: MO-46 Catalog number: 26548 Epoch time: 07087.53958620 Element set: 757 Inclination: 064.5563 deg RA of node: 072.1560 deg Eccentricity: 0.0025054 Arg of perigee: 207.8505 deg Mean anomaly: 152.1277 deg Mean motion: 14.83115214 rev/day Decay rate: 1.03e-06 rev/day^2 Epoch rev: 35157 Checksum: 297
Satellite: NO-44 Catalog number: 26931 Epoch time: 07087.90707379 Element set: 0553 Inclination: 067.0550 deg RA of node: 354.2862 deg Eccentricity: 0.0006710 Arg of perigee: 277.3511 deg Mean anomaly: 082.6834 deg Mean motion: 14.29476337 rev/day Decay rate: -1.91e-06 rev/day^2 Epoch rev: 28662 Checksum: 322
Satellite: SO-50 Catalog number: 27607 Epoch time: 07087.16770098 Element set: 0276 Inclination: 064.5603 deg RA of node: 331.0159 deg Eccentricity: 0.0044756 Arg of perigee: 025.0552 deg Mean anomaly: 335.2716 deg Mean motion: 14.71241662 rev/day Decay rate: 8.9e-07 rev/day^2 Epoch rev: 22920 Checksum: 297
Satellite: CO-55 Catalog number: 27844 Epoch time: 07088.44009041 Element set: 993 Inclination: 098.7213 deg RA of node: 097.8264 deg Eccentricity: 0.0009708 Arg of perigee: 327.2204 deg Mean anomaly: 032.8358 deg Mean motion: 14.20499654 rev/day Decay rate: 2.3e-07 rev/day^2 Epoch rev: 19415 Checksum: 320
Satellite: CO-57 Catalog number: 27848 Epoch time: 07087.53472833 Element set: 0955 Inclination: 098.7199 deg RA of node: 096.1578 deg Eccentricity: 0.0009626 Arg of perigee: 332.6858 deg Mean anomaly: 027.3816 deg Mean motion: 14.20320448 rev/day Decay rate: 3.6e-07 rev/day^2 Epoch rev: 19400 Checksum: 343
Satellite: AO-51 Catalog number: 28375 Epoch time: 07088.55304938 Element set: 780 Inclination: 098.1238 deg RA of node: 131.9408 deg Eccentricity: 0.0085152 Arg of perigee: 063.6569 deg Mean anomaly: 297.3333 deg Mean motion: 14.40560289 rev/day Decay rate: 1.5e-07 rev/day^2 Epoch rev: 14424 Checksum: 320
Satellite: CO-56 Catalog number: 28941 Epoch time: 07088.77349493 Element set: 393 Inclination: 098.1392 deg RA of node: 141.1849 deg Eccentricity: 0.0238376 Arg of perigee: 193.4168 deg Mean anomaly: 166.0658 deg Mean motion: 15.36327558 rev/day Decay rate: 2.7082e-04 rev/day^2 Epoch rev: 6122 Checksum: 355
Satellite: HO-59 Catalog number: 29484 Epoch time: 07088.54836026 Element set: 246 Inclination: 098.2992 deg RA of node: 126.5580 deg Eccentricity: 0.0231521 Arg of perigee: 190.0784 deg Mean anomaly: 169.5780 deg Mean motion: 15.44590082 rev/day Decay rate: 4.6660e-04 rev/day^2 Epoch rev: 2875 Checksum: 345
Satellite: NO-60 Catalog number: 29661 Epoch time: 07088.58704140 Element set: 138 Inclination: 051.6396 deg RA of node: 147.7633 deg Eccentricity: 0.0012674 Arg of perigee: 031.2668 deg Mean anomaly: 328.9065 deg Mean motion: 15.94864253 rev/day Decay rate: 1.11386e-03 rev/day^2 Epoch rev: 1566 Checksum: 326
Satellite: NO-61 Catalog number: 29664 Epoch time: 07087.61705875 Element set: 0118 Inclination: 051.6329 deg RA of node: 155.5110 deg Eccentricity: 0.0015979 Arg of perigee: 028.3749 deg Mean anomaly: 331.8123 deg Mean motion: 15.86544882 rev/day Decay rate: 3.3336e-04 rev/day^2 Epoch rev: 01534 Checksum: 324
/EX SB KEPS @ AMSAT $ORB07088.W Orbital Elements 07088.WEATHER
HR AMSAT ORBITAL ELEMENTS FOR WEATHER SATELLITES FROM WA5QGD FORT WORTH,TX March 29, 2007 Send SUBSCRIBE KEPS/UNSUBSCRIBE KEPS to majordomo@amsat.org only BID: ORB07088.W TO ALL RADIO AMATEURS BT
Satellite: NOAA-10 Catalog number: 16969 Epoch time: 07088.10768995 Element set: 601 Inclination: 098.7512 deg RA of node: 105.2240 deg Eccentricity: 0.0013079 Arg of perigee: 043.9714 deg Mean anomaly: 316.2498 deg Mean motion: 14.27320083 rev/day Decay rate: -1.10e-06 rev/day^2 Epoch rev: 6780 Checksum: 298
Satellite: NOAA-11 Catalog number: 19531 Epoch time: 07088.07793098 Element set: 599 Inclination: 098.8095 deg RA of node: 178.2427 deg Eccentricity: 0.0010930 Arg of perigee: 258.8374 deg Mean anomaly: 101.1563 deg Mean motion: 14.14841050 rev/day Decay rate: 2.52e-06 rev/day^2 Epoch rev: 95482 Checksum: 322
Satellite: NOAA-12 Catalog number: 21263 Epoch time: 07088.07691528 Element set: 92 Inclination: 098.7524 deg RA of node: 085.4566 deg Eccentricity: 0.0012525 Arg of perigee: 343.9394 deg Mean anomaly: 016.1363 deg Mean motion: 14.25525182 rev/day Decay rate: -1.9e-07 rev/day^2 Epoch rev: 82483 Checksum: 310
